• în România
  • Lista ţărilor
  • Pe 7 zile
  • Temperatura apei
  • Hartă satelitară
  • Meteo pe hartă
  • Widget-uri
  • user-avatar
    Intrare

    Meteo pe oră la Ganja

    Astăzi, 19 Iulie, Joi

    Timp Temperatura Precipitaţii Vânt Presiune Umiditate
    00:00 +27°C° 0 mm 2 m/s 719 mmHg 60%
    01:00 +26°C° 0 mm 2 m/s 719 mmHg 62%
    02:00 +26°C° 0 mm 1 m/s 719 mmHg 63%
    03:00 +25°C° 0 mm 1 m/s 719 mmHg 63%
    04:00 +26°C° 0 mm 1 m/s 719 mmHg 61%
    05:00 +26°C° 0 mm 1 m/s 719 mmHg 60%
    06:00 +26°C° 0 mm 2 m/s 719 mmHg 59%
    07:00 +28°C° 0 mm 2 m/s 719 mmHg 56%
    08:00 +29°C° 0 mm 2 m/s 718 mmHg 53%
    09:00 +31°C° 0 mm 2 m/s 718 mmHg 50%
    10:00 +32°C° 0 mm 2 m/s 718 mmHg 48%
    11:00 +34°C° 0 mm 2 m/s 718 mmHg 45%
    12:00 +35°C° 0 mm 2 m/s 717 mmHg 42%
    13:00 +36°C° 0,1 mm 2 m/s 717 mmHg 41%
    14:00 +36°C° 0,1 mm 2 m/s 717 mmHg 40%
    15:00 +37°C° 0,1 mm 2 m/s 716 mmHg 38%
    16:00 +37°C° 0,1 mm 2 m/s 716 mmHg 39%
    17:00 +36°C° 0,1 mm 2 m/s 717 mmHg 39%
    18:00 +36°C° 0,1 mm 2 m/s 717 mmHg 40%
    19:00 +35°C° 0 mm 2 m/s 717 mmHg 41%
    20:00 +32°C° 0 mm 2 m/s 717 mmHg 42%
    21:00 +30°C° 0 mm 2 m/s 718 mmHg 43%
    22:00 +30°C° 0 mm 2 m/s 718 mmHg 44%
    23:00 +29°C° 0 mm 2 m/s 718 mmHg 45%

    Mâine, 20 Iulie, Vineri

    Timp Temperatura Precipitaţii Vânt Presiune Umiditate
    00:00 +29°C° 0 mm 2 m/s 718 mmHg 46%
    01:00 +28°C° 0 mm 3 m/s 718 mmHg 48%
    02:00 +28°C° 0 mm 3 m/s 718 mmHg 49%
    03:00 +27°C° 0 mm 3 m/s 718 mmHg 51%
    04:00 +27°C° 0 mm 3 m/s 718 mmHg 52%
    05:00 +28°C° 0 mm 3 m/s 718 mmHg 52%
    06:00 +28°C° 0 mm 3 m/s 718 mmHg 53%
    07:00 +30°C° 0 mm 3 m/s 718 mmHg 47%
    08:00 +31°C° 0 mm 3 m/s 718 mmHg 42%
    09:00 +34°C° 0 mm 3 m/s 718 mmHg 37%
    10:00 +35°C° 0 mm 3 m/s 718 mmHg 35%
    11:00 +36°C° 0 mm 3 m/s 718 mmHg 33%
    12:00 +37°C° 0 mm 2 m/s 718 mmHg 31%
    13:00 +38°C° 0 mm 3 m/s 717 mmHg 30%
    14:00 +38°C° 0 mm 3 m/s 717 mmHg 29%
    15:00 +39°C° 0 mm 3 m/s 717 mmHg 29%
    16:00 +38°C° 0 mm 3 m/s 717 mmHg 30%
    17:00 +38°C° 0 mm 3 m/s 717 mmHg 31%
    18:00 +38°C° 0 mm 3 m/s 717 mmHg 32%
    19:00 +36°C° 0 mm 3 m/s 717 mmHg 36%
    20:00 +34°C° 0 mm 3 m/s 717 mmHg 39%
    21:00 +31°C° 0 mm 3 m/s 718 mmHg 43%
    22:00 +30°C° 0,1 mm 3 m/s 718 mmHg 46%
    23:00 +29°C° 0,1 mm 3 m/s 718 mmHg 49%

    Poimâine, 21 Iulie, Sâmbătă

    Timp Temperatura Precipitaţii Vânt Presiune Umiditate
    00:00 +28°C° 0,1 mm 3 m/s 719 mmHg 52%
    01:00 +28°C° 0,1 mm 2 m/s 719 mmHg 54%
    02:00 +27°C° 0,1 mm 2 m/s 719 mmHg 56%
    03:00 +26°C° 0,1 mm 1 m/s 719 mmHg 58%
    04:00 +27°C° 0,1 mm 2 m/s 719 mmHg 57%
    05:00 +27°C° 0,1 mm 2 m/s 719 mmHg 57%
    06:00 +27°C° 0,1 mm 3 m/s 719 mmHg 56%
    07:00 +28°C° 0 mm 3 m/s 719 mmHg 53%
    08:00 +30°C° 0 mm 3 m/s 720 mmHg 49%
    09:00 +31°C° 0 mm 3 m/s 720 mmHg 45%
    10:00 +33°C° 0,1 mm 3 m/s 719 mmHg 44%
    11:00 +34°C° 0,1 mm 2 m/s 719 mmHg 43%
    12:00 +35°C° 0,1 mm 2 m/s 719 mmHg 42%
    13:00 +35°C° 0,1 mm 2 m/s 719 mmHg 40%
    14:00 +36°C° 0,1 mm 2 m/s 719 mmHg 39%
    15:00 +37°C° 0,1 mm 2 m/s 719 mmHg 38%
    16:00 +36°C° 0,3 mm 2 m/s 719 mmHg 39%
    17:00 +36°C° 0,3 mm 2 m/s 719 mmHg 40%
    18:00 +36°C° 0,3 mm 2 m/s 719 mmHg 40%
    19:00 +34°C° 0,4 mm 2 m/s 720 mmHg 45%
    20:00 +31°C° 0,4 mm 2 m/s 720 mmHg 49%
    21:00 +29°C° 0,4 mm 3 m/s 721 mmHg 53%
    22:00 +29°C° 0,2 mm 2 m/s 721 mmHg 55%
    23:00 +28°C° 0,2 mm 2 m/s 721 mmHg 57%

    22 Iulie, Duminică

    Timp Temperatura Precipitaţii Vânt Presiune Umiditate
    00:00 +27°C° 0,2 mm 2 m/s 721 mmHg 59%
    01:00 +27°C° 0,1 mm 2 m/s 721 mmHg 60%
    02:00 +26°C° 0,1 mm 2 m/s 721 mmHg 61%
    03:00 +26°C° 0,1 mm 2 m/s 721 mmHg 62%
    04:00 +26°C° 0 mm 2 m/s 721 mmHg 61%
    05:00 +26°C° 0 mm 2 m/s 721 mmHg 60%
    06:00 +27°C° 0 mm 2 m/s 721 mmHg 59%
    07:00 +28°C° 0 mm 2 m/s 721 mmHg 54%
    08:00 +29°C° 0 mm 2 m/s 721 mmHg 50%
    09:00 +31°C° 0 mm 3 m/s 721 mmHg 45%
    10:00 +33°C° 0 mm 3 m/s 721 mmHg 43%
    11:00 +34°C° 0 mm 3 m/s 720 mmHg 41%
    12:00 +35°C° 0 mm 3 m/s 720 mmHg 40%
    13:00 +35°C° 0,1 mm 3 m/s 720 mmHg 38%
    14:00 +36°C° 0,1 mm 3 m/s 719 mmHg 36%
    15:00 +37°C° 0,1 mm 4 m/s 719 mmHg 34%
    16:00 +37°C° 0,1 mm 4 m/s 719 mmHg 35%
    17:00 +36°C° 0,1 mm 4 m/s 719 mmHg 36%
    18:00 +36°C° 0,1 mm 4 m/s 719 mmHg 37%
    19:00 +34°C° 0,1 mm 4 m/s 720 mmHg 40%
    20:00 +33°C° 0,1 mm 4 m/s 720 mmHg 44%
    21:00 +30°C° 0,1 mm 4 m/s 720 mmHg 47%
    22:00 +29°C° 0,1 mm 4 m/s 720 mmHg 50%
    23:00 +28°C° 0,1 mm 3 m/s 720 mmHg 52%

    23 Iulie, Luni

    Timp Temperatura Precipitaţii Vânt Presiune Umiditate
    00:00 +27°C° 0,1 mm 2 m/s 720 mmHg 55%
    01:00 +27°C° 0,1 mm 2 m/s 720 mmHg 56%
    02:00 +26°C° 0,1 mm 2 m/s 720 mmHg 57%
    03:00 +26°C° 0,1 mm 2 m/s 720 mmHg 59%
    04:00 +26°C° 0 mm 2 m/s 720 mmHg 58%
    05:00 +26°C° 0 mm 2 m/s 720 mmHg 58%
    06:00 +26°C° 0 mm 2 m/s 720 mmHg 57%
    07:00 +28°C° 0 mm 2 m/s 720 mmHg 53%
    08:00 +29°C° 0 mm 2 m/s 720 mmHg 48%
    09:00 +30°C° 0 mm 3 m/s 720 mmHg 44%
    10:00 +32°C° 0 mm 2 m/s 719 mmHg 41%
    11:00 +34°C° 0 mm 2 m/s 719 mmHg 39%
    12:00 +35°C° 0 mm 2 m/s 719 mmHg 36%
    13:00 +35°C° 0,1 mm 2 m/s 718 mmHg 35%
    14:00 +36°C° 0,1 mm 3 m/s 718 mmHg 34%
    15:00 +37°C° 0,1 mm 3 m/s 717 mmHg 32%
    16:00 +36°C° 0,1 mm 3 m/s 718 mmHg 33%
    17:00 +36°C° 0,1 mm 3 m/s 718 mmHg 34%
    18:00 +36°C° 0,1 mm 3 m/s 718 mmHg 35%
    19:00 +34°C° 0,1 mm 3 m/s 719 mmHg 38%
    20:00 +32°C° 0,1 mm 2 m/s 719 mmHg 41%
    21:00 +30°C° 0,1 mm 2 m/s 720 mmHg 44%
    22:00 +29°C° 0,1 mm 2 m/s 720 mmHg 46%
    23:00 +28°C° 0,1 mm 2 m/s 720 mmHg 48%

    24 Iulie, Marţi

    Timp Temperatura Precipitaţii Vânt Presiune Umiditate
    00:00 +28°C° 0,1 mm 2 m/s 720 mmHg 51%
    01:00 +27°C° 0 mm 2 m/s 720 mmHg 52%
    02:00 +27°C° 0 mm 2 m/s 720 mmHg 53%
    03:00 +26°C° 0 mm 2 m/s 720 mmHg 55%
    04:00 +26°C° 0 mm 2 m/s 720 mmHg 55%
    05:00 +26°C° 0 mm 3 m/s 720 mmHg 54%
    06:00 +27°C° 0 mm 3 m/s 720 mmHg 54%
    07:00 +28°C° 0 mm 3 m/s 720 mmHg 50%
    08:00 +30°C° 0 mm 3 m/s 720 mmHg 45%
    09:00 +33°C° 0 mm 4 m/s 720 mmHg 41%
    10:00 +34°C° 0 mm 3 m/s 720 mmHg 39%
    11:00 +35°C° 0 mm 3 m/s 720 mmHg 37%
    12:00 +36°C° 0 mm 3 m/s 720 mmHg 34%
    13:00 +36°C° 0 mm 2 m/s 720 mmHg 34%
    14:00 +37°C° 0 mm 2 m/s 719 mmHg 33%
    15:00 +37°C° 0 mm 2 m/s 719 mmHg 32%
    16:00 +37°C° 0 mm 2 m/s 719 mmHg 33%
    17:00 +37°C° 0 mm 2 m/s 720 mmHg 34%
    18:00 +37°C° 0 mm 2 m/s 720 mmHg 35%
    19:00 +35°C° 0 mm 2 m/s 720 mmHg 37%
    20:00 +34°C° 0 mm 2 m/s 721 mmHg 40%
    21:00 +31°C° 0 mm 2 m/s 721 mmHg 42%
    22:00 +30°C° 0 mm 2 m/s 721 mmHg 43%
    23:00 +29°C° 0 mm 2 m/s 722 mmHg 45%
    Arată mai mult